Weather History for KIML - June, 2012

Change the Weather History Date:

Saturday, June 23, 2012

  Actual Average Record
Temperature  
Mean Temperature 82 °F 72 °F  
Max Temperature 99 °F 87 °F 105 °F (1954)
Min Temperature 64 °F 58 °F 43 °F (1947)
Degree Days  
Heating Degree Days 0 1  
Month to date heating degree days 2 33  
Since 1 June heating degree days 2 33  
Cooling Degree Days 17 8  
Month to date cooling degree days 239 123  
Year to date cooling degree days 316 167  
Since 1 June cooling degree days 239 123  
Growing Degree Days 31 (Base 50)    
Moisture  
Dew Point 62 °F    
Average Humidity 59    
Maximum Humidity 93    
Minimum Humidity 24    
Precipitation  
Precipitation 0.00 in 0.11 in 2.25 in (1993)
Sea Level Pressure  
Sea Level Pressure 29.68 in    
Wind  
Wind Speed 12 mph (ESE)    
Max Wind Speed 40 mph    
Max Gust Speed 53 mph    
Visibility 10 miles    
Events      
T = Trace of Precipitation, MM = Missing Value Source: NWS Daily Summary

Daily Weather History Graph

Daily Weather History Graph

Search for Another Location

Airport or City:

Trip Planner

Search our weather history database for the weather conditions in past years. The results will help you decide how hot, cold, wet, or windy it might be!

Date:

Astronomy

Jun. 23, 2012 Rise Set
Actual Time 5:16 AM MDT 8:20 PM MDT
Civil Twilight 4:43 AM MDT 8:54 PM MDT
Nautical Twilight 4:01 AM MDT 9:36 PM MDT
Astronomical Twilight 3:11 AM MDT 10:26 PM MDT
Moon 9:21 AM MDT (6/23) 10:49 PM MDT (6/23)
Length of Visible Light 16h 10m
Length of Day
15h 04m
Waxing Crescent, 16% of the Moon is Illuminated
Jun 23
Waxing Crescent
Jun 26
First Quarter
Jul 3
Full
Jul 10
Last Quarter
Jul 18
New

Hourly Weather History & Observations

Time (MDT) Temp. Heat Index Dew Point Humidity Pressure Visibility Wind Dir Wind Speed Gust Speed Precip Events Conditions
12:11 AM 73.4 °F - 64.4 °F 73% 29.75 in 10.0 mi ESE 18.4 mph 26.5 mph 0.00 in   Partly Cloudy
12:53 AM 73.9 °F - 64.0 °F 71% 29.63 in 10.0 mi SSE 28.8 mph 38.0 mph 0.02 in   Scattered Clouds
1:53 AM 71.1 °F - 62.1 °F 73% 29.60 in 10.0 mi SE 33.4 mph 42.6 mph N/A   Clear
2:53 AM 68.0 °F - 59.0 °F 73% 29.62 in 10.0 mi SE 24.2 mph 41.4 mph N/A   Clear
3:53 AM 66.0 °F - 57.9 °F 75% 29.62 in 10.0 mi SE 21.9 mph 32.2 mph N/A   Clear
4:53 AM 64.0 °F - 57.9 °F 80% 29.64 in 10.0 mi SE 17.3 mph - N/A   Clear
5:53 AM 64.0 °F - 59.0 °F 84% 29.64 in 10.0 mi SE 15.0 mph - N/A   Clear
6:53 AM 66.0 °F - 60.1 °F 81% 29.69 in 10.0 mi East 10.4 mph 24.2 mph N/A   Partly Cloudy
7:53 AM 69.1 °F - 61.0 °F 75% 29.71 in 10.0 mi ESE 12.7 mph - N/A   Clear
8:53 AM 72.0 °F - 62.1 °F 71% 29.71 in 10.0 mi ESE 11.5 mph - N/A   Clear
9:53 AM 78.1 °F - 64.0 °F 62% 29.72 in 10.0 mi ESE 9.2 mph - N/A   Clear
10:53 AM 80.1 °F 81.7 °F 64.0 °F 58% 29.72 in 10.0 mi ESE 6.9 mph - N/A   Clear
11:53 AM 84.9 °F 86.6 °F 64.9 °F 51% 29.70 in 10.0 mi Variable 4.6 mph - N/A   Clear
12:53 PM 89.1 °F 90.3 °F 64.0 °F 43% 29.69 in 10.0 mi East 6.9 mph - N/A   Clear
1:53 PM 93.0 °F 94.2 °F 63.0 °F 37% 29.68 in 10.0 mi East 9.2 mph - N/A   Clear
2:53 PM 96.1 °F 95.6 °F 59.0 °F 29% 29.68 in 10.0 mi ESE 5.8 mph - N/A   Clear
3:53 PM 98.1 °F 96.8 °F 57.0 °F 25% 29.67 in 10.0 mi East 8.1 mph - N/A   Clear
4:53 PM 98.1 °F 96.4 °F 55.9 °F 24% 29.67 in 10.0 mi ESE 9.2 mph - N/A   Clear
5:53 PM 96.1 °F 95.2 °F 57.9 °F 28% 29.66 in 10.0 mi ESE 8.1 mph - N/A   Clear
6:53 PM 91.9 °F 91.5 °F 60.1 °F 34% 29.67 in 10.0 mi ESE 8.1 mph - N/A   Clear
7:53 PM 81.0 °F 81.9 °F 62.1 °F 52% 29.69 in 10.0 mi East 8.1 mph - N/A   Clear
8:53 PM 80.1 °F 82.3 °F 66.9 °F 64% 29.70 in 10.0 mi ESE 11.5 mph - N/A   Clear
9:53 PM 75.9 °F - 69.1 °F 79% 29.73 in 10.0 mi ESE 12.7 mph - N/A   Clear
10:53 PM 73.9 °F - 69.1 °F 85% 29.74 in 10.0 mi ESE 12.7 mph - N/A   Clear
11:53 PM 72.0 °F - 69.1 °F 91% 29.73 in 9.0 mi ESE 9.2 mph - N/A   Clear